User: anonymous   Login
Location: *
(37.5724°S, 58.0067°E)
Time: 03:27:12
(UTC+00:00)
Language:

Cosmos 2227 Rocket - Orbit

View from above orbital plane
View from above orbital plane
View from above satellite
View from above satellite

Ground track
Ground track

The orbit data is extracted from the following two-line orbital elements,

1 22285U 92093B   20337.75543591  .00000292  00000-0  17522-3 0  9999
2 22285  71.0223  79.4337 0004839 332.6259  27.4608 14.15050575441147
Epoch (UTC): 02 December 2020 18:07:49
Eccentricity: 0.0004839
inclination: 71.0223°
perigee height: 838 km
apogee height: 845 km
right ascension of ascending node: 79.4337°
argument of perigee: 332.6259°
revolutions per day: 14.15050575
mean anomaly at epoch: 27.4608°
orbit number at epoch: 44114

The dashed part of the orbit path shows where the satellite is in the earth's shadow,  

DLR